Pascagoula, MS

8:34 AM CST on February 24, 2018 (GMT -0600)
Lott International

Weather History for KPQL - February, 2014

Change the Weather History Date:

Tuesday, February 4, 2014

  Actual Average Record
Temperature  
Mean Temperature 56 °F -  
Max Temperature 68 °F 60 °F 79 °F (1957)
Min Temperature 43 °F 41 °F 21 °F (1970)
Degree Days  
Heating Degree Days 10    
Growing Degree Days 6 (Base 50)    
Moisture  
Dew Point 58 °F    
Average Humidity 98    
Maximum Humidity 100    
Minimum Humidity 87    
Precipitation  
Precipitation 0.00 in - - ()
Sea Level Pressure  
Sea Level Pressure 29.98 in    
Wind  
Wind Speed 7 mph (SE)    
Max Wind Speed 16 mph    
Max Gust Speed 29 mph    
Visibility 4 miles    
Events Fog , Rain    
Averages and records for this station are not official NWS values.
T = Trace of Precipitation, MM = Missing Value Source: NWS Daily Summary

Daily Weather History Graph

Daily Weather History Graph

Search for Another Location

Airport or City:

Trip Planner

Search our weather history database for the weather conditions in past years. The results will help you decide how hot, cold, wet, or windy it might be!

Date:

Astronomy

Feb. 04, 2014 Rise Set
Actual Time 6:43 AM CST 5:33 PM CST
Civil Twilight 6:18 AM CST 5:58 PM CST
Nautical Twilight 5:49 AM CST 6:26 PM CST
Astronomical Twilight 5:21 AM CST 6:55 PM CST
Moon 9:46 AM CST (2/4) 10:59 PM CST (2/4)
Length of Visible Light 11h 40m
Length of Day
10h 50m
Waxing Crescent, 29% of the Moon is Illuminated
Feb 4
Waxing Crescent
Feb 6
First Quarter
Feb 14
Full
Feb 22
Last Quarter
Mar 1
New

Hourly Weather History & Observations

Time (CST) Temp. Windchill Dew Point Humidity Pressure Visibility Wind Dir Wind Speed Gust Speed Precip Events Conditions
12:09 AM 43.0 °F 38.8 °F 43.0 °F 100% 30.10 in 1.8 mi NNE 6.9 mph - N/A   Overcast
12:53 AM 43.0 °F 39.5 °F 43.0 °F 100% 30.10 in 1.8 mi NNE 5.8 mph - N/A   Overcast
1:12 AM 43.0 °F 38.2 °F 43.0 °F 100% 30.09 in 2.0 mi NNE 8.1 mph - N/A   Overcast
1:53 AM 43.0 °F 38.2 °F 43.0 °F 100% 30.10 in 2.0 mi North 8.1 mph - N/A   Overcast
2:53 AM 43.0 °F 38.2 °F 43.0 °F 100% 30.08 in 2.5 mi NNE 8.1 mph - N/A   Overcast
3:11 AM 44.1 °F 41.5 °F 44.1 °F 100% 30.07 in 3.0 mi NNE 4.6 mph - N/A   Overcast
3:53 AM 44.1 °F 41.5 °F 44.1 °F 100% 30.06 in 3.0 mi ENE 4.6 mph - N/A   Overcast
4:11 AM 44.1 °F 40.1 °F 44.1 °F 100% 30.06 in 2.5 mi NE 6.9 mph - N/A   Overcast
4:53 AM 45.0 °F 43.5 °F 45.0 °F 100% 30.06 in 2.0 mi NE 3.5 mph - N/A   Overcast
5:05 AM 45.0 °F 42.6 °F 44.1 °F 97% 30.05 in 1.5 mi NE 4.6 mph - N/A   Overcast
5:53 AM 45.0 °F 42.6 °F 45.0 °F 100% 30.06 in 1.0 mi NE 4.6 mph - N/A   Overcast
6:53 AM 46.0 °F 44.8 °F 46.0 °F 100% 30.07 in 1.8 mi ENE 3.5 mph - N/A   Overcast
7:22 AM 46.0 °F 44.8 °F 46.0 °F 100% 30.07 in 0.5 mi NE 3.5 mph - N/A Fog Fog
7:34 AM - - - N/A% 30.06 in 0.5 mi North - - N/A Fog Fog
7:53 AM - - - N/A% 30.07 in 0.5 mi North - - N/A Fog Fog
8:53 AM - - - N/A% 30.07 in 0.8 mi North - - N/A   Overcast
9:53 AM - - - N/A% 30.08 in 0.8 mi Calm Calm - N/A   Overcast
10:53 AM - - - N/A% 30.06 in 0.5 mi Calm Calm - N/A Fog Fog
11:53 AM - - - N/A% 30.01 in 0.8 mi Calm Calm - N/A   Overcast
12:53 PM - - - N/A% 29.97 in 0.8 mi Calm Calm - N/A   Overcast
1:00 PM - - - N/A% 29.96 in - North - - N/A   Unknown
1:53 PM 64.9 °F - 62.1 °F 90% 29.95 in 10.0 mi SE 8.1 mph - N/A   Overcast
2:53 PM 64.9 °F - 64.0 °F 97% 29.93 in 6.0 mi SSE 11.5 mph - N/A   Mist
3:04 PM 64.9 °F - 64.0 °F 97% 29.92 in 8.0 mi SSE 9.2 mph - N/A   Overcast
3:36 PM 66.9 °F - 64.0 °F 90% 29.91 in 9.0 mi SSE 8.1 mph - N/A   Overcast
3:44 PM 66.9 °F - 64.0 °F 90% 29.91 in 9.0 mi SSE 6.9 mph - N/A   Overcast
3:53 PM 68.0 °F - 64.0 °F 87% 29.92 in 10.0 mi SSE 9.2 mph - N/A   Mostly Cloudy
4:16 PM 68.0 °F - 64.0 °F 87% 29.92 in 10.0 mi SSE 10.4 mph - N/A   Overcast
4:53 PM 66.0 °F - 64.0 °F 93% 29.92 in 10.0 mi SSE 9.2 mph - N/A   Overcast
5:22 PM 66.0 °F - 64.0 °F 93% 29.92 in 9.0 mi SSE 9.2 mph - N/A   Overcast
5:53 PM 64.9 °F - 63.0 °F 93% 29.92 in 10.0 mi SSE 11.5 mph - N/A   Overcast
6:53 PM 64.9 °F - 64.0 °F 97% 29.92 in 8.0 mi SSE 10.4 mph - N/A   Overcast
7:53 PM 64.9 °F - 64.9 °F 100% 29.90 in 6.0 mi SSE 10.4 mph 20.7 mph N/A   Overcast
8:02 PM 64.9 °F - 64.9 °F 100% 29.90 in 5.0 mi SSE 10.4 mph - N/A   Overcast
8:53 PM 66.9 °F - 66.9 °F 100% 29.90 in 4.0 mi South 16.1 mph 23.0 mph N/A   Overcast
9:06 PM 66.9 °F - 66.9 °F 100% 29.89 in 2.5 mi South 13.8 mph 26.5 mph N/A   Overcast
9:35 PM 66.9 °F - 66.9 °F 100% 29.89 in 1.8 mi South 13.8 mph 23.0 mph N/A   Overcast
9:46 PM 66.9 °F - 66.9 °F 100% 29.90 in 2.0 mi South 15.0 mph 28.8 mph N/A   Overcast
9:53 PM 66.9 °F - 66.9 °F 100% 29.91 in 2.0 mi South 12.7 mph 24.2 mph N/A   Overcast
10:18 PM 66.9 °F - 66.9 °F 100% 29.90 in 1.8 mi South 11.5 mph 23.0 mph N/A   Overcast
10:31 PM 66.9 °F - 66.9 °F 100% 29.90 in 2.0 mi South 13.8 mph 23.0 mph N/A   Overcast
10:53 PM 66.9 °F - 66.9 °F 100% 29.91 in 3.0 mi South 13.8 mph 24.2 mph N/A   Overcast
11:40 PM 66.0 °F - 66.0 °F 100% 29.92 in 2.0 mi SSW 9.2 mph 21.9 mph N/A   Overcast
11:53 PM 64.9 °F - 64.9 °F 100% 29.95 in 2.0 mi WSW 11.5 mph 24.2 mph 0.00 in Rain Light Rain